Wind_Speed
8 10 11 11 11 12 13 13 14 14 14 15 15 15 16 16 17 17 18 19 20 21 22 22 21 20 20 20 21 22 24 25 27 28 29 28 28 27 27 27 28 28 28 28 28 28 27 27 27 28 28 28 28 29 29 28 27 26 24 23 23 23 23 23 25 26 28 28 29 29 29 29 29 29 30 30 30 30 30 30 30 30 30 30 30 30
8 9 10 11 11 12 12 13 14 14 15 15 15 16 16 17 17 17 18 19 20 21 22 22 21 20 20 20 21 22 23 25 26 28 29 28 27 27 27 27 27 28 28 28 28 28 27 27 27 27 27 28 28 28 29 29 28 27 25 24 23 22 22 23 24 26 27 28 28 28 28 28 28 29 29 29 30 30 30 30 30 30 30 30 30 30
8 9 10 11 11 11 12 13 13 14 15 15 15 16 16 17 18 18 19 19 20 21 22 22 22 20 19 19 20 21 22 24 26 27 28 28 27 26 26 26 27 27 28 28 28 27 27 27 27 27 27 27 28 28 28 28 28 27 26 25 24 23 23 24 25 27 28 28 28 28 28 28 28 28 28 29 29 30 30 30 30 30 30 30 30 30
8 9 11 11 11 11 11 12 13 14 14 15 15 16 16 17 18 19 19 19 20 21 22 23 22 21 19 19 20 20 22 23 25 27 28 28 27 26 26 26 26 27 27 27 27 27 27 27 26 27 27 27 28 28 28 28 27 27 26 25 24 24 24 25 27 29 29 29 29 28 28 27 27 27 28 28 29 29 29 30 30 30 30 30 30 30
8 9 10 11 11 10 11 12 13 13 14 15 15 16 17 17 18 19 19 19 20 21 22 23 22 21 20 19 19 20 21 23 25 26 28 28 27 26 26 26 26 27 27 27 27 27 27 26 26 26 27 27 28 28 28 27 27 26 25 24 23 23 23 25 26 29 30 30 30 29 28 27 27 27 27 27 28 28 29 29 30 30 30 30 30 30
7 8 10 10 10 10 10 11 12 14 14 15 16 16 17 18 18 19 19 20 20 21 22 23 23 21 20 19 19 20 21 22 24 26 28 28 27 26 26 26 26 26 27 27 27 27 27 26 26 26 27 27 28 28 27 27 26 25 25 24 23 22 22 23 25 27 28 29 30 30 29 28 27 27 27 27 27 28 28 28 29 29 30 30 30 30
6 8 9 9 9 9 9 10 12 14 15 16 16 16 17 18 19 19 19 20 21 22 22 23 23 22 20 19 19 20 21 22 24 26 28 28 27 26 26 26 26 26 26 27 27 27 26 26 26 26 27 28 28 28 27 27 26 25 24 24 23 22 22 23 24 26 27 28 29 29 30 29 28 27 27 27 27 28 28 28 28 29 29 29 30 30
6 7 8 8 9 9 9 10 12 14 16 17 17 17 17 19 19 19 19 20 21 22 23 24 23 22 19 19 19 20 21 22 24 26 28 28 28 27 26 26 26 26 26 26 27 27 26 26 26 27 27 28 28 28 27 26 25 25 24 24 23 22 22 23 24 26 27 28 28 28 29 29 29 28 28 27 27 28 28 28 28 28 28 28 29 29
5 6 7 8 9 9 9 10 11 13 15 16 16 16 18 20 21 21 20 20 20 22 23 24 24 23 20 18 18 19 21 22 24 26 28 29 28 27 26 26 25 26 26 26 26 26 26 26 26 27 27 28 28 28 27 26 25 24 24 24 23 23 23 24 25 26 27 28 28 28 28 28 28 28 29 28 28 28 28 29 29 29 28 28 28 28
5 6 6 7 8 9 10 10 11 13 14 14 14 15 17 20 22 22 22 21 21 22 23 24 24 23 21 18 18 18 20 21 24 26 28 28 28 27 26 25 25 25 25 25 26 26 26 26 26 27 28 28 28 28 27 26 25 24 24 24 24 24 24 25 25 27 28 28 29 29 28 28 28 28 28 29 29 29 29 30 30 30 29 28 28 28
5 5 6 7 7 8 9 10 11 12 13 13 13 14 16 19 21 22 22 22 22 23 23 23 23 22 20 18 17 17 19 21 24 27 28 28 27 26 25 25 24 24 24 24 25 25 25 26 26 27 28 29 29 28 27 25 24 24 24 24 24 24 25 26 26 27 28 29 29 29 29 29 28 28 27 28 29 29 30 31 31 31 31 30 29 28
4 5 6 6 7 8 9 10 11 12 13 14 14 15 16 18 19 19 19 20 22 23 24 24 23 21 17 15 15 16 18 21 25 28 29 29 27 26 25 25 24 24 24 24 24 25 25 25 26 27 28 29 29 28 27 25 24 23 23 24 24 25 26 26 27 28 29 30 30 30 29 29 29 28 28 28 28 28 29 30 31 32 32 32 31 29
4 4 5 6 7 8 9 10 11 12 13 14 14 14 15 17 18 18 18 19 20 21 23 23 23 21 16 13 13 15 18 22 26 29 30 29 28 26 25 24 24 23 23 24 24 24 24 25 26 27 28 29 29 28 26 25 23 23 23 24 24 25 26 27 28 29 30 30 30 30 29 29 29 29 28 28 28 28 29 29 30 31 32 33 33 31
3 4 5 5 7 8 9 10 11 11 11 12 12 13 14 15 17 18 18 19 20 21 22 22 21 19 15 12 12 14 19 23 27 30 30 29 27 25 24 24 23 23 23 23 24 24 24 24 26 27 28 29 28 27 26 24 23 22 23 23 24 25 26 28 29 30 30 30 30 30 30 29 29 29 29 29 29 29 29 29 30 30 31 32 33 33
3 4 5 6 7 7 8 10 10 10 10 10 11 12 14 14 16 17 18 18 19 21 21 22 21 18 14 11 12 15 20 25 28 30 29 28 26 24 23 22 22 22 22 23 23 23 23 24 25 26 28 28 28 26 24 23 22 22 22 23 24 25 26 28 29 30 31 31 30 30 30 29 29 29 29 29 29 29 29 29 30 30 31 31 32 33
4 4 5 6 7 7 8 8 9 9 9 10 11 12 13 14 15 16 16 17 18 19 19 20 20 18 15 13 14 17 22 26 28 29 28 28 26 24 22 21 21 21 21 22 22 23 23 23 24 26 27 27 27 25 23 21 21 20 21 22 23 24 26 28 30 30 31 30 30 30 30 29 29 29 29 29 29 29 29 30 30 31 31 31 31 32
4 4 5 6 7 7 7 8 8 8 9 9 10 11 12 13 14 14 15 15 16 16 16 16 15 14 15 17 18 20 24 27 28 28 27 26 26 24 22 20 19 20 20 21 21 22 22 23 24 25 26 26 26 24 22 20 19 19 20 20 22 24 26 28 29 30 30 30 30 30 29 29 29 29 29 29 29 29 30 30 30 31 31 32 32 32
4 4 5 6 7 7 8 8 8 8 9 9 10 11 11 12 13 13 13 13 13 13 13 13 12 11 13 15 18 22 25 27 27 27 26 26 25 24 22 20 19 19 20 21 21 21 21 22 23 24 25 25 25 23 21 19 18 18 19 20 21 23 26 28 29 30 30 30 29 29 29 29 29 30 30 30 30 30 30 30 31 31 32 32 32 32
5 5 6 6 7 8 8 7 7 7 8 9 10 11 11 12 12 13 12 12 12 11 12 12 12 12 13 16 20 24 25 26 26 25 24 24 25 25 22 20 19 20 21 21 21 20 20 21 22 23 24 24 23 22 20 18 18 18 18 20 21 23 26 28 29 29 29 29 29 29 29 29 30 30 30 30 30 30 30 30 31 31 32 32 32 32
6 7 7 7 7 7 7 6 6 7 7 8 10 11 11 12 13 12 12 12 11 11 11 11 12 13 15 18 22 24 25 24 23 22 21 22 23 24 22 20 20 21 22 22 22 21 20 21 22 23 23 23 22 20 19 18 17 17 18 20 22 24 26 28 28 28 28 28 28 29 29 29 30 30 30 30 30 30 30 31 31 31 31 32 32 32
7 8 7 7 7 7 6 6 6 6 7 8 9 10 11 12 13 13 12 12 12 12 12 12 13 15 17 19 22 23 23 21 20 19 19 20 22 22 22 21 21 22 23 23 22 22 22 22 23 23 23 22 21 19 18 17 17 17 19 21 23 25 27 27 28 27 27 27 28 28 29 29 29 30 30 30 30 31 31 31 31 31 31 31 31 32
9 8 8 7 7 6 6 6 6 6 7 8 8 9 10 11 12 12 13 13 13 13 13 14 15 17 19 21 22 22 20 17 15 16 17 18 20 22 22 21 21 22 23 23 24 24 24 24 24 24 22 21 19 18 17 16 16 18 20 22 24 26 27 27 27 26 26 27 27 28 28 29 29 30 30 30 30 31 31 31 31 31 31 31 31 32
9 9 8 7 7 6 6 6 6 6 7 7 8 9 10 11 11 12 13 13 14 14 15 16 18 19 20 20 21 19 17 14 13 14 14 15 18 20 21 21 22 22 22 23 25 26 27 26 25 24 22 21 19 17 16 16 17 18 20 23 25 26 27 27 26 26 26 26 26 27 28 29 29 29 30 30 30 30 31 31 31 31 31 31 31 32
9 9 8 7 7 7 7 7 6 6 7 7 8 9 10 10 11 12 13 14 14 15 16 17 19 19 19 19 18 17 15 13 13 13 13 13 16 19 20 20 21 21 23 25 26 27 28 27 26 25 23 20 18 17 16 16 17 19 21 24 26 27 27 26 26 25 25 25 26 27 28 28 29 29 29 29 30 30 30 30 30 30 31 31 31 32
9 8 8 7 7 7 7 7 7 7 7 8 8 9 9 10 11 12 13 14 15 15 16 17 17 17 17 17 16 15 14 14 14 14 13 13 15 18 19 19 19 21 23 26 27 28 28 28 27 25 23 21 18 17 16 17 19 21 23 25 26 26 26 25 25 25 25 25 26 27 27 28 29 29 29 29 29 29 29 30 30 30 30 31 31 32
9 8 8 8 8 8 8 8 7 7 7 7 8 9 10 11 12 13 14 14 15 15 15 15 15 15 15 15 14 14 14 15 15 14 13 13 14 17 18 18 18 20 23 26 27 27 27 27 26 25 23 21 19 18 18 19 21 23 25 26 26 26 25 25 24 24 25 25 26 27 28 28 29 29 29 28 28 29 29 29 30 30 30 31 32 32
9 9 9 9 8 8 8 7 7 7 7 8 8 9 10 11 13 14 14 14 14 14 13 13 13 14 14 13 13 14 16 17 16 13 12 12 14 15 17 18 19 20 23 25 26 25 25 25 25 24 22 21 20 19 20 22 24 26 27 27 27 26 25 24 24 24 24 25 26 27 28 29 29 29 28 28 28 28 28 29 29 29 30 31 32 33
9 9 9 9 8 8 8 8 9 9 9 9 9 10 10 12 13 14 14 14 14 13 12 12 12 12 12 12 14 16 17 16 14 11 9 11 12 13 17 19 20 20 22 23 25 24 23 22 22 22 21 21 21 22 23 25 27 28 29 28 27 26 25 25 24 24 24 25 26 28 29 29 29 28 28 28 28 28 28 29 29 29 30 30 31 32
10 9 9 9 9 9 9 10 10 11 11 11 11 11 12 12 13 13 13 13 13 13 13 13 13 13 13 14 16 17 16 13 10 8 8 11 13 15 18 19 19 19 20 22 23 23 21 19 19 19 19 20 22 24 26 28 29 30 30 29 28 27 26 25 24 24 25 26 27 29 29 29 29 28 28 28 28 28 28 29 29 29 29 29 30 30
10 10 10 10 10 10 11 11 12 12 12 13 13 13 13 13 13 12 12 11 11 13 14 14 14 14 14 14 14 13 11 9 7 7 11 13 14 16 19 19 19 18 18 19 19 19 19 19 18 17 18 20 23 26 28 30 31 31 31 30 30 29 27 26 26 26 26 27 29 30 30 30 29 29 28 28 28 28 28 28 28 28 29 29 29 29
11 11 10 10 11 11 12 12 13 13 13 14 14 14 14 13 13 12 11 10 10 12 13 14 14 14 13 11 8 6 8 9 10 11 14 15 15 16 18 19 19 18 16 15 14 12 12 18 19 18 18 21 24 26 28 29 30 31 31 31 30 29 29 28 28 28 29 30 30 31 30 30 30 29 29 29 29 29 28 28 28 28 28 28 28 28
11 11 11 11 12 12 13 13 14 14 14 14 15 15 14 14 13 12 10 10 10 11 12 13 14 14 14 12 10 9 12 14 15 15 16 16 16 17 17 18 19 18 16 15 13 11 8 14 19 21 21 22 24 25 27 28 29 29 30 30 30 30 30 30 30 31 31 32 32 31 31 30 30 30 30 30 29 29 29 28 28 28 27 28 28 28
11 11 12 12 13 13 14 14 14 15 15 15 16 16 15 14 13 12 11 10 10 10 11 13 14 15 15 16 16 17 18 19 19 18 16 15 15 16 16 17 18 19 18 17 17 16 15 17 21 23 24 23 23 23 25 26 27 28 28 28 29 30 31 31 32 32 33 33 33 32 32 31 31 31 30 30 29 29 29 28 28 28 27 28 28 27
12 12 12 13 13 14 14 15 15 16 16 17 17 17 16 15 14 13 12 12 11 11 12 12 14 15 16 16 17 19 20 20 19 17 15 15 15 16 17 18 19 19 19 18 18 18 19 20 21 22 23 24 23 23 23 24 25 25 25 25 27 29 30 31 32 33 33 33 33 33 33 33 32 32 31 30 29 28 28 28 28 28 28 28 27 26
13 13 13 14 14 15 15 16 16 17 18 18 18 17 17 15 15 14 14 14 14 14 14 14 15 16 17 17 18 19 20 20 19 17 16 16 17 17 18 18 18 18 19 19 18 18 19 21 22 21 22 24 24 24 22 22 22 22 22 23 25 27 29 30 30 31 32 33 33 34 34 34 34 33 31 30 29 28 28 28 29 29 29 28 26 25
14 14 15 15 15 16 16 17 18 19 19 19 19 18 17 16 16 16 16 17 17 17 17 17 17 17 18 19 20 22 23 23 21 19 18 18 18 18 18 18 18 17 18 19 19 18 19 22 23 23 22 23 23 23 22 21 20 21 22 23 25 26 27 28 28 29 30 32 33 34 34 34 34 32 31 29 29 28 29 29 30 30 29 27 26 24
15 16 16 16 17 17 18 19 20 20 20 20 19 18 17 17 17 18 19 19 20 20 20 20 20 20 19 20 21 22 23 22 21 20 19 18 19 20 21 20 19 18 18 20 20 20 20 22 23 24 23 22 21 21 22 22 22 22 23 23 24 25 26 26 26 27 28 30 31 33 34 33 33 32 31 31 31 31 32 32 31 30 28 27 26 25
17 17 18 18 18 19 20 20 21 21 21 20 19 18 18 18 19 20 20 21 22 22 22 22 21 21 20 20 20 21 21 21 20 20 20 19 20 21 23 23 22 21 21 22 22 22 21 20 20 21 21 21 21 22 22 22 23 23 23 23 23 23 24 24 24 25 27 29 30 32 32 31 31 31 32 32 33 33 34 33 31 30 28 28 27 26
18 19 19 19 20 20 21 21 21 21 21 20 19 19 19 20 20 21 22 23 23 23 23 22 22 21 21 20 20 20 20 20 20 21 21 21 21 22 23 25 25 25 24 24 24 23 22 21 20 19 20 21 22 23 23 22 22 23 23 23 23 23 22 22 23 24 26 28 30 31 30 30 29 30 31 32 32 33 33 32 32 30 29 29 28 28
20 20 20 21 21 21 21 21 21 21 20 20 20 20 20 21 22 23 23 24 24 24 23 22 22 22 22 21 21 21 21 21 21 21 22 22 22 22 23 25 26 26 26 25 25 24 23 22 22 22 22 21 22 23 23 23 23 23 23 23 22 22 21 22 23 25 27 27 27 28 28 28 28 29 29 30 30 31 31 31 31 31 30 29 28 28
20 21 22 22 22 22 22 21 21 20 20 20 20 21 21 22 22 23 24 24 23 23 22 22 22 22 23 23 23 23 23 23 23 22 22 22 22 22 22 24 25 25 25 25 25 25 25 24 23 23 23 22 23 24 25 24 23 22 22 22 23 24 24 24 25 25 25 25 24 24 25 26 27 27 28 30 31 31 31 31 32 32 31 29 28 27
21 22 22 22 22 22 21 21 20 20 20 20 21 21 22 22 22 23 22 22 22 22 22 21 22 23 24 25 25 24 24 24 23 22 22 21 21 21 21 22 22 23 23 24 25 25 24 24 24 23 22 21 22 23 24 24 23 23 23 23 24 25 26 25 23 22 22 23 23 23 24 26 27 28 28 30 31 31 31 31 32 32 31 30 29 28
22 22 23 22 22 22 21 21 20 20 21 21 22 22 22 22 21 21 22 22 22 22 22 22 22 22 23 24 25 25 24 24 23 22 21 21 20 20 20 21 21 21 21 23 25 25 24 23 23 23 23 22 22 23 24 25 25 24 25 24 24 23 22 23 22 22 23 24 25 25 26 27 28 28 29 29 30 31 31 32 32 31 30 30 30 30
22 23 23 22 22 22 21 21 21 21 21 21 22 22 22 22 22 22 22 22 22 22 22 21 21 22 23 23 24 24 24 23 22 21 21 21 20 20 20 20 21 21 21 22 24 24 23 22 23 23 23 22 23 24 24 25 26 26 27 25 24 23 24 24 25 25 26 27 27 26 27 27 28 28 28 29 30 30 31 31 31 31 31 31 31 31
22 22 22 22 22 21 21 21 21 21 21 21 22 22 22 22 22 21 21 22 22 22 21 21 20 20 21 21 22 22 24 24 23 21 21 21 20 20 20 20 21 21 21 22 23 24 24 23 23 22 22 22 23 24 24 25 27 28 28 26 25 25 27 28 27 27 27 28 28 28 27 27 27 28 28 28 28 28 29 30 30 30 30 31 31 31
22 22 23 22 22 21 22 21 21 21 21 22 22 23 23 22 22 21 21 21 22 22 21 20 19 19 20 21 21 22 23 24 24 23 22 22 21 21 20 20 20 21 21 22 23 24 25 26 25 24 24 23 24 25 26 26 27 28 28 27 26 26 27 28 27 27 27 28 28 28 27 27 26 27 27 27 28 28 29 29 28 28 29 30 31 31
23 23 23 23 22 22 22 22 21 21 22 22 22 22 22 22 21 21 21 21 21 21 21 20 19 19 21 22 22 22 22 24 24 24 23 22 22 21 20 20 21 21 22 23 24 25 26 27 27 27 26 24 25 26 27 27 27 27 28 27 26 26 27 28 28 27 27 28 28 28 27 26 26 26 26 26 27 28 28 27 27 28 29 30 31 30
23 23 23 22 22 22 22 21 21 21 22 23 23 23 22 22 21 21 21 20 20 20 20 19 19 20 21 22 22 22 22 23 24 24 23 23 22 22 21 21 21 21 22 23 24 25 26 27 28 28 27 26 26 26 27 27 27 28 28 28 26 25 26 28 29 28 28 28 29 29 27 27 26 26 27 26 26 27 27 27 27 28 29 29 30 30
22 22 22 21 21 22 22 21 21 22 23 23 23 23 22 21 20 20 20 20 19 19 19 19 19 20 21 21 22 22 22 23 23 23 23 23 23 22 22 21 21 21 21 22 23 23 25 26 27 27 27 28 28 29 30 28 27 27 28 28 27 26 27 28 29 29 28 29 29 29 28 27 27 28 27 26 26 27 28 27 28 29 28 28 28 28
21 21 21 21 21 22 22 22 22 22 22 22 22 22 22 21 20 20 19 19 19 19 19 19 19 20 20 21 21 21 21 22 22 23 23 23 22 22 22 21 20 20 21 21 21 21 21 23 25 26 26 26 28 30 31 30 28 26 27 28 28 27 27 28 29 28 28 28 28 28 27 28 28 27 26 25 25 27 28 28 29 29 29 28 28 29
22 22 21 21 22 22 22 22 22 22 22 21 21 21 21 21 20 20 19 19 19 19 19 19 19 19 20 21 21 21 21 22 23 24 24 23 22 22 22 22 21 20 20 20 20 19 19 19 20 22 25 24 24 26 29 30 28 25 25 27 27 27 27 27 28 28 27 27 28 28 28 28 28 27 25 24 25 27 28 28 29 30 30 29 29 30
Wind_Direction
24 23 23 23 27 28 26 24 24 26 26 27 29 31 32 31 31 31 32 33 33 34 33 33 32 32 32 32 33 33 32 30 28 26 26 26 26 27 27 28 28 27 26 25 24 23 22 21 20 20 20 20 20 20 21 23 24 24 24 22 20 19 18 16 14 12 11 10 10 10 10 10 9 8 8 7 7 6 6 5 5 5 5 4 3 3
21 21 21 22 25 28 26 23 22 23 22 23 24 25 26 26 26 26 27 28 29 30 31 30 30 29 30 30 30 30 30 28 25 24 23 23 24 25 26 26 26 26 25 24 23 22 21 20 19 19 19 18 18 18 18 19 21 22 22 21 20 18 16 14 13 12 12 12 12 12 11 10 9 9 8 7 7 6 5 5 4 4 3 3 2 1
18 19 20 20 23 26 25 22 21 21 20 20 20 20 21 21 21 21 22 22 24 26 27 27 27 27 27 28 28 28 27 25 23 21 20 21 22 23 24 24 25 24 24 23 22 21 20 19 18 17 17 17 17 17 17 17 18 18 19 18 17 14 12 11 10 10 12 13 14 14 13 11 10 9 8 7 7 6 5 4 3 3 2 2 1 360
18 19 18 19 22 24 22 20 19 19 17 18 18 17 17 17 17 17 17 17 18 20 23 24 24 24 24 25 25 25 24 22 20 18 17 18 19 20 21 22 23 23 22 22 21 20 19 18 17 16 16 15 15 15 15 16 16 17 17 16 14 11 9 7 6 8 10 12 14 14 14 12 11 9 9 8 7 6 4 3 3 2 1 0 360 359
19 18 16 18 22 23 19 18 16 15 13 14 15 15 14 13 13 13 13 13 14 15 17 20 21 21 21 22 22 22 21 19 17 15 14 15 16 17 19 19 20 20 20 20 19 18 17 17 16 15 14 14 13 13 14 14 15 15 16 15 14 11 7 5 5 5 7 9 10 12 13 12 11 10 9 8 7 6 5 4 2 1 0 360 359 358
17 16 15 18 21 22 19 15 13 11 10 11 12 13 12 10 9 9 10 10 10 10 12 15 17 18 18 19 19 18 18 15 13 11 10 11 13 14 16 17 17 18 18 17 17 16 16 15 14 14 13 12 12 11 12 12 13 14 14 14 13 10 7 4 4 5 5 6 6 8 9 11 11 10 9 8 7 7 5 4 3 1 0 359 358 357
12 10 12 16 18 18 19 15 11 9 9 10 10 9 8 6 6 7 8 8 7 6 7 9 12 15 16 16 16 15 14 11 9 7 7 8 10 12 13 14 14 15 15 15 14 14 14 13 13 12 11 11 10 10 10 11 11 12 12 12 11 9 6 4 3 4 4 4 4 4 4 6 7 8 8 7 7 6 6 5 3 2 0 359 358 356
10 7 9 15 16 15 16 13 11 10 9 9 9 7 4 3 3 4 5 5 4 3 3 4 7 11 13 13 13 12 10 7 4 3 3 4 6 8 10 11 12 12 12 12 12 11 11 11 11 10 10 9 9 9 9 9 10 11 11 11 10 8 6 3 2 2 3 3 2 2 1 1 2 4 5 5 5 5 5 4 4 3 1 359 357 356
7 8 5 8 12 14 14 10 9 10 10 10 8 6 3 1 0 360 1 1 1 1 0 0 3 6 10 11 10 9 7 3 0 358 359 0 3 5 7 8 8 9 9 9 9 8 8 8 8 8 8 7 7 8 8 9 10 10 10 10 9 7 5 3 2 1 1 1 1 0 359 358 358 358 360 1 2 2 2 3 3 2 1 360 358 356
351 1 5 4 6 10 13 10 7 8 9 9 7 5 3 1 359 357 356 356 356 357 358 359 0 3 6 8 8 6 2 359 356 355 355 357 360 2 4 5 5 6 6 6 6 5 5 5 5 5 6 6 6 7 8 9 10 10 10 8 7 6 5 3 1 0 360 359 359 359 358 357 356 355 355 356 357 358 359 359 360 0 1 360 359 357
344 350 359 6 5 5 8 8 6 5 5 4 3 2 2 1 360 357 354 351 351 353 354 356 358 1 4 5 4 1 357 353 350 350 352 355 357 360 1 2 2 2 2 3 3 2 2 2 2 3 4 4 5 6 8 9 10 10 9 7 6 5 3 2 0 359 358 358 357 357 356 356 355 354 353 353 353 354 355 356 356 357 358 359 359 358
341 345 351 359 3 3 3 3 2 1 1 2 3 2 1 0 359 357 354 349 348 349 351 352 355 359 4 4 360 354 350 346 345 346 348 351 355 357 358 359 359 359 359 359 360 360 360 360 360 0 1 3 4 5 7 8 9 9 8 6 4 3 1 360 359 358 357 356 356 355 354 354 353 353 352 351 351 351 351 352 353 354 354 355 356 357
322 335 343 350 356 359 359 360 1 2 4 5 5 2 357 356 355 354 353 349 348 348 348 348 351 356 2 4 357 348 343 341 341 342 345 348 352 355 355 356 356 356 356 356 356 357 357 357 357 358 359 1 2 4 6 7 8 8 6 4 2 1 359 358 357 356 355 355 354 354 353 353 352 351 351 350 350 349 349 349 350 350 351 352 353 355
315 325 334 344 351 355 356 357 360 3 6 5 2 358 354 352 352 351 350 349 348 347 347 347 348 352 359 360 351 343 339 338 338 340 342 345 349 352 353 352 352 352 352 352 353 354 355 355 355 356 357 359 0 2 4 5 6 5 4 2 360 358 357 356 355 355 354 353 353 353 352 352 351 350 350 349 349 348 348 348 348 348 348 348 349 351
308 321 330 339 345 350 352 354 356 359 1 359 356 354 351 350 350 351 351 350 348 346 347 346 346 349 353 352 345 340 337 337 337 338 339 340 344 349 350 350 349 349 349 349 349 350 352 352 352 353 354 356 358 0 2 3 3 2 360 358 356 355 354 354 353 353 353 353 352 352 351 351 350 349 349 348 348 347 347 346 346 346 346 346 346 347
296 311 323 330 336 342 345 347 349 352 354 354 353 351 350 350 350 352 352 350 349 348 348 347 346 344 342 340 339 338 337 337 337 336 335 335 339 345 347 346 345 344 344 345 346 347 349 350 350 350 351 353 355 358 359 0 360 358 355 353 352 351 351 351 351 351 352 352 351 351 351 350 349 349 348 347 347 346 345 345 345 344 344 344 344 344
288 302 314 322 327 332 336 340 344 348 350 350 349 348 348 348 350 351 351 350 349 349 349 348 345 339 333 331 332 334 336 337 336 334 332 331 335 340 344 343 340 338 339 340 342 344 346 347 347 348 348 350 352 355 357 358 357 354 351 349 348 347 348 348 349 350 350 351 351 351 350 350 349 348 347 347 346 345 344 343 343 343 343 343 342 342
277 293 307 314 318 322 327 333 341 346 347 347 345 344 344 345 347 349 350 349 348 347 344 343 339 331 325 322 323 328 334 335 334 332 329 328 331 336 340 340 337 334 334 336 338 341 344 344 344 344 345 347 349 352 354 355 353 350 347 345 344 344 344 345 347 348 349 350 350 350 350 349 349 348 346 345 344 344 343 342 342 342 341 341 341 341
271 286 298 303 310 315 320 327 336 343 345 343 341 341 342 342 344 346 348 346 344 340 336 332 327 321 316 312 317 324 332 334 333 331 327 324 327 332 337 337 334 331 330 332 335 338 340 340 341 341 342 344 346 349 351 351 349 346 343 341 340 341 342 343 345 346 348 349 350 350 350 349 348 347 346 345 343 342 342 341 341 341 340 340 340 339
271 281 289 296 303 307 312 320 330 337 338 337 336 337 339 340 341 342 342 339 336 332 328 324 318 314 313 310 315 323 331 333 333 329 324 320 322 328 333 333 331 328 327 329 333 336 336 336 336 337 338 341 343 346 347 346 344 340 338 337 337 338 339 341 343 345 346 347 348 349 349 348 347 346 345 344 342 341 341 340 340 340 340 339 339 338
272 278 285 291 294 297 303 314 324 330 331 332 334 336 337 337 337 336 335 332 329 325 322 317 312 311 311 309 313 320 329 333 332 328 322 318 319 322 328 329 328 326 325 327 330 332 332 332 333 334 336 338 340 342 342 341 338 335 333 333 334 336 338 339 341 343 344 345 346 347 347 347 347 346 344 343 341 340 340 339 339 339 339 339 338 337
274 278 282 283 286 289 296 306 315 322 326 330 333 334 333 332 331 329 328 326 322 318 314 310 309 309 309 309 312 319 327 331 330 326 321 316 313 316 323 326 325 324 323 324 327 328 329 329 330 331 333 335 337 338 337 334 332 329 329 330 332 334 336 338 340 341 342 343 344 344 345 345 345 344 343 342 341 339 339 338 338 339 338 338 337 336
273 275 276 276 280 285 292 300 309 316 322 326 328 329 328 327 325 323 321 318 315 313 311 310 309 308 308 309 313 319 325 329 329 325 320 310 307 311 319 323 324 322 320 322 324 325 325 326 327 329 331 333 333 333 331 327 325 324 325 328 330 332 335 336 338 339 339 340 341 341 342 342 343 342 342 341 339 338 338 337 338 338 338 337 336 335
268 269 269 271 276 282 289 295 303 312 319 323 325 325 325 323 320 317 314 312 310 309 308 308 308 308 309 312 315 320 324 327 327 324 317 305 302 306 314 320 322 320 318 320 322 323 323 323 325 327 329 330 330 328 325 321 319 320 322 325 328 331 333 334 336 336 337 337 337 338 338 339 340 340 339 339 338 337 337 337 337 337 337 336 335 334
262 263 264 267 272 279 286 294 303 311 316 319 319 320 320 316 313 309 308 306 306 306 307 308 309 310 312 315 317 319 321 323 323 321 313 303 299 303 311 317 319 317 316 318 319 321 321 321 322 324 327 327 327 324 319 317 316 318 321 324 327 329 331 332 333 333 334 334 334 334 335 336 336 337 337 337 337 337 337 337 337 337 336 335 334 333
257 259 262 266 272 280 287 296 303 307 307 307 309 311 311 309 306 304 303 303 304 307 309 311 311 310 311 314 314 314 316 318 320 319 311 302 298 301 308 314 317 316 315 316 317 319 319 318 319 322 324 325 323 320 316 314 315 317 320 323 326 327 329 330 330 330 330 330 330 331 332 333 334 334 335 335 336 336 337 337 337 337 336 334 333 333
255 258 263 268 275 283 290 294 295 293 291 295 301 306 307 306 304 302 301 305 308 309 309 309 307 307 310 310 309 309 312 315 318 319 312 300 295 297 305 312 315 316 315 314 314 315 316 315 317 319 321 321 319 316 314 314 315 318 320 323 325 326 326 326 326 326 326 326 327 328 329 330 332 332 333 334 334 335 336 337 337 336 335 334 333 333
256 260 266 270 276 281 285 286 286 287 290 296 302 306 306 306 304 302 302 309 311 308 302 299 299 302 304 305 304 306 309 312 316 319 314 302 295 297 305 312 315 316 316 314 313 313 313 312 314 316 317 316 314 313 312 314 316 318 321 322 323 324 324 323 323 322 322 322 323 325 326 328 330 331 332 332 333 335 336 336 336 335 334 332 332 331
254 259 264 268 272 275 277 280 283 287 293 299 305 308 310 310 307 304 307 311 309 301 295 292 292 293 296 300 303 305 307 310 315 318 310 306 302 302 308 312 314 316 318 316 315 313 311 310 310 311 311 311 310 310 311 314 316 318 320 321 322 322 322 321 320 319 318 319 320 322 324 326 328 329 330 331 332 333 334 335 335 333 332 330 330 329
251 256 260 264 268 272 275 279 283 288 293 299 306 310 311 313 311 310 310 308 301 294 291 290 290 290 294 301 306 307 304 306 310 310 308 310 307 307 310 311 311 314 319 320 318 314 310 308 307 307 308 307 307 308 311 313 316 318 319 320 320 320 320 319 318 316 315 316 318 320 322 324 326 328 328 329 330 331 332 333 333 331 329 328 327 326
251 254 258 263 267 271 274 279 283 288 293 299 305 309 311 312 313 312 311 304 297 292 291 290 289 289 290 296 301 301 296 299 301 303 307 308 305 304 308 308 308 310 315 317 316 313 310 308 306 306 306 306 306 307 310 312 314 316 317 318 318 317 317 317 316 315 315 315 317 318 320 323 324 326 327 327 328 329 330 331 330 329 327 325 324 323
253 256 260 263 267 270 273 278 283 287 293 298 303 307 310 311 312 312 311 307 301 296 292 290 289 287 285 280 274 274 282 288 293 298 303 302 300 300 303 303 304 305 308 306 301 296 297 301 303 303 304 304 305 306 307 309 311 313 314 315 314 314 314 315 314 314 315 316 317 318 319 321 322 323 324 325 325 325 326 327 327 326 324 322 321 320
254 257 260 263 266 269 273 278 282 287 292 297 302 306 308 309 311 312 312 311 307 301 296 293 290 287 284 278 274 274 278 284 289 295 299 297 295 296 299 299 300 302 303 300 294 288 285 288 295 300 301 302 302 303 304 305 307 309 311 311 310 310 311 313 313 314 315 316 317 318 318 319 320 321 321 321 321 321 322 323 324 323 321 319 318 317
255 257 260 263 266 269 274 278 282 287 291 296 300 304 306 307 308 310 312 312 310 305 299 295 291 287 284 280 278 278 280 284 290 294 295 293 291 293 295 295 296 298 299 297 295 291 287 286 290 296 300 300 299 299 299 301 303 305 306 306 305 306 308 310 312 313 314 315 316 317 318 318 319 319 318 318 318 317 318 319 319 319 318 316 315 315
257 259 261 264 267 269 273 277 281 285 289 294 298 301 303 304 305 308 310 311 310 307 302 298 293 289 284 279 277 278 280 285 290 293 291 289 288 289 291 289 290 293 294 293 293 293 292 290 290 294 297 299 299 297 297 298 300 301 300 300 300 302 304 307 310 311 313 314 315 316 316 317 317 317 316 315 314 313 313 313 314 316 316 316 314 312
260 260 262 264 267 269 272 275 280 284 288 293 297 300 302 302 303 306 308 310 310 308 304 301 297 292 287 282 279 278 281 287 291 292 288 286 285 284 284 283 285 287 288 288 289 290 291 292 292 293 294 295 296 297 297 298 298 298 297 297 298 300 302 305 307 309 310 311 312 313 314 315 315 314 313 312 311 310 309 310 311 313 315 314 313 310
260 260 262 264 266 269 272 276 280 285 289 294 298 300 300 300 301 303 306 307 308 307 305 302 299 295 291 287 285 284 286 290 292 290 287 284 281 280 279 279 279 280 280 282 285 287 288 290 292 293 291 289 290 293 297 299 299 298 296 297 298 299 301 303 304 305 306 307 308 309 310 311 311 311 311 310 310 310 310 311 312 312 313 312 310 308
259 260 261 263 266 270 273 277 282 286 291 295 298 299 298 298 299 301 303 304 305 305 304 302 299 296 293 291 289 288 289 290 290 289 286 283 281 279 277 276 276 275 274 276 279 282 284 285 287 290 290 288 287 288 292 296 297 297 296 296 296 296 296 298 300 300 301 302 303 305 306 308 308 309 309 309 310 310 311 311 312 312 311 310 308 306
257 259 261 264 267 271 274 278 283 288 292 295 296 296 295 296 297 298 300 301 302 302 301 300 299 297 295 293 291 290 289 288 287 287 287 284 281 279 278 276 275 275 275 275 275 275 276 276 277 280 284 287 288 289 290 291 292 294 295 296 295 293 292 294 295 295 296 298 300 302 304 305 306 306 306 306 307 308 309 310 310 310 309 308 307 305
258 260 263 266 269 272 276 280 284 288 291 292 292 292 292 293 294 296 297 299 300 301 301 300 299 297 295 294 292 291 289 288 287 287 286 284 282 280 278 276 276 277 277 276 274 272 270 271 271 274 277 281 285 287 289 289 289 291 293 295 293 292 291 292 292 292 293 295 296 298 300 301 301 301 301 302 303 304 305 306 307 307 306 306 305 304
259 262 264 268 271 274 277 281 285 287 288 289 288 288 288 290 293 295 297 298 299 300 300 299 298 296 294 292 291 290 290 289 287 286 286 285 283 281 278 276 276 278 279 277 275 272 270 270 271 272 273 276 279 283 285 285 286 287 288 288 288 289 290 290 290 291 292 292 292 293 294 294 293 294 295 297 299 300 302 303 303 304 303 302 301 300
261 263 266 269 272 275 279 282 284 284 284 285 284 285 286 289 292 294 295 296 296 296 296 295 293 292 291 289 289 289 289 289 288 288 287 286 284 282 279 277 277 277 278 278 275 272 269 268 270 271 272 274 277 279 281 283 284 284 284 283 286 289 291 289 288 288 289 288 288 287 287 287 288 290 292 294 296 298 300 301 301 300 300 299 297 296
262 265 268 271 274 277 279 280 280 280 281 281 282 284 286 289 290 292 292 292 292 292 292 291 290 290 289 289 289 289 289 289 289 289 288 287 285 282 280 278 277 276 276 276 274 273 271 268 267 268 270 273 275 276 278 281 283 283 282 281 284 287 289 287 287 288 287 286 285 284 284 284 286 288 290 291 293 295 297 298 298 297 296 295 295 294
265 268 271 273 275 277 278 278 278 278 280 280 281 283 285 287 288 288 288 288 288 289 289 289 289 289 287 286 288 290 291 290 289 289 288 287 286 283 281 280 278 276 274 273 271 271 272 269 267 268 270 271 272 272 274 278 281 282 282 281 281 279 278 281 285 287 286 285 284 283 283 284 286 287 288 289 290 291 293 294 295 294 294 294 294 293
267 270 271 273 274 275 275 275 276 278 279 279 280 281 283 285 285 285 285 286 286 286 286 286 288 287 285 284 286 289 291 291 290 289 288 287 286 284 282 281 280 278 276 273 272 271 271 269 269 271 271 271 270 271 272 276 279 280 280 280 279 277 276 278 280 282 282 283 282 282 283 285 286 286 286 285 286 287 288 289 290 290 291 292 292 292
268 270 271 271 272 272 273 274 276 277 277 278 278 280 282 284 284 284 283 283 284 284 284 284 282 281 280 283 285 288 290 290 290 290 289 288 287 285 284 282 281 280 278 276 274 273 273 271 272 273 275 273 272 271 270 272 275 277 278 279 278 278 278 278 278 278 278 279 280 281 283 285 285 283 280 281 283 285 285 285 285 285 286 288 289 289
269 270 271 271 272 272 273 274 275 276 276 276 278 279 281 282 283 283 282 281 281 282 282 281 278 275 275 278 282 284 286 287 289 289 289 289 288 287 285 283 282 281 280 278 277 276 275 275 274 273 272 272 272 272 271 271 272 273 275 277 277 277 277 278 278 278 278 278 278 280 283 283 281 278 277 278 280 282 283 282 282 282 283 284 286 286
270 270 271 271 272 273 273 274 274 275 275 276 277 279 280 281 282 282 281 280 279 279 279 278 275 274 274 275 278 280 281 283 285 287 288 288 288 288 286 285 284 283 282 281 279 279 278 277 275 273 270 267 267 269 270 270 270 271 272 274 274 274 274 276 277 278 278 278 279 280 280 279 277 276 277 278 279 279 280 281 282 282 282 283 284 284
271 271 271 272 272 272 272 273 273 274 274 275 277 278 279 280 280 280 280 280 278 275 273 273 273 274 274 275 276 278 279 280 282 283 285 286 287 288 287 287 286 285 284 282 281 280 279 278 276 272 269 264 263 264 267 267 267 268 270 271 271 271 271 273 276 277 277 278 279 280 279 277 276 275 276 275 275 277 280 281 282 282 282 282 282 281
271 270 271 271 271 270 271 271 271 271 272 274 275 277 279 280 279 279 278 278 276 272 269 269 270 271 272 274 276 277 278 279 281 282 282 283 285 286 287 286 286 287 286 284 281 280 279 280 278 274 270 265 263 263 264 265 265 266 267 268 269 269 269 271 273 275 276 278 278 279 279 278 277 275 273 271 273 277 280 281 282 282 281 280 279 277
269 269 269 268 268 268 269 269 269 270 271 272 274 276 278 278 278 277 276 274 272 270 268 268 267 267 269 273 275 276 277 278 279 280 281 282 283 283 283 284 284 285 285 285 284 282 282 283 283 280 275 268 263 263 264 264 264 264 263 265 267 268 269 270 273 275 276 277 278 279 279 278 277 275 271 270 273 278 281 281 280 280 280 280 278 277
Height
889 889 889 889 888 888 887 887 887 887 886 886 886 885 885 885 885 884 884 883 882 882 881 880 880 879 879 878 877 877 876 876 875 875 874 874 873 872 871 870 870 869 868 867 866 865 865 864 863 862 861 860 859 858 857 856 855 855 854 853 852 851 850 849 848 847 845 844 843 841 840 839 838 836 835 834 833 831 830 829 827 826 825 824 823 822
888 888 888 888 888 887 887 887 886 886 886 885 885 885 885 885 884 884 883 883 882 882 881 881 880 880 879 878 878 877 876 876 875 875 875 874 873 872 872 871 870 869 868 868 867 866 865 864 863 862 861 860 859 858 857 856 855 855 854 853 852 851 850 849 848 847 846 845 843 842 840 839 838 837 835 834 833 832 830 829 828 826 825 825 823 822
887 887 887 887 887 887 886 886 886 886 885 885 885 885 885 884 884 883 883 882 882 882 881 881 880 880 879 878 878 877 877 876 876 875 875 874 874 873 872 871 870 870 869 868 867 866 865 864 863 862 861 860 860 859 857 856 855 855 854 853 852 851 850 849 848 847 846 845 843 842 840 839 838 837 836 835 833 832 830 829 828 827 825 825 824 822
886 886 886 886 886 886 886 886 885 885 885 885 885 884 884 884 883 883 883 882 882 881 881 881 880 879 879 878 878 877 877 876 876 875 875 874 874 873 872 871 870 870 869 868 867 866 865 865 864 863 862 861 860 859 858 857 855 855 854 853 852 851 850 849 848 846 845 845 843 842 841 840 838 837 836 835 833 832 831 830 828 827 826 825 824 822
885 886 886 886 885 885 885 885 885 885 885 884 884 884 883 883 883 883 882 882 881 881 880 880 880 879 878 878 877 877 876 876 875 875 875 874 874 873 872 871 870 870 869 868 867 866 866 865 864 863 862 861 860 859 858 857 856 855 854 853 852 851 850 849 847 846 845 844 843 842 841 840 839 837 836 835 834 832 831 830 828 827 826 825 824 822
885 885 885 885 885 885 885 885 885 884 884 884 883 883 883 883 882 882 882 881 881 880 880 880 880 879 878 878 877 877 876 876 875 875 875 874 873 873 872 871 870 870 869 868 867 866 866 865 864 863 862 861 860 859 858 857 855 855 854 853 852 851 850 849 848 846 845 844 843 842 841 840 839 837 836 835 834 832 831 830 829 827 826 825 823 822
884 884 884 885 885 885 885 884 884 884 883 882 882 882 882 882 882 881 881 881 880 880 880 879 879 879 878 877 877 876 876 875 875 875 874 874 873 872 871 871 870 869 869 868 867 866 865 865 864 863 862 861 860 859 858 856 855 854 853 852 852 851 850 849 848 847 845 844 843 842 840 840 839 837 836 835 834 832 831 830 829 827 826 825 823 822
883 884 884 884 884 884 884 884 884 883 882 882 881 881 881 881 881 880 880 880 880 879 879 879 878 878 878 877 876 876 875 875 874 874 873 873 872 872 871 870 870 869 868 867 867 866 865 865 864 863 862 861 860 859 857 856 855 854 853 852 851 850 850 849 848 846 845 844 843 842 840 839 838 837 836 835 834 832 831 830 829 827 826 825 823 822
883 883 883 883 883 883 883 883 883 883 882 882 881 881 880 880 879 879 880 879 879 879 878 878 877 877 877 877 876 875 875 875 874 873 873 872 872 871 870 870 869 868 868 867 866 866 865 864 863 862 861 860 860 858 857 856 855 854 853 852 851 850 849 848 847 846 845 844 843 842 840 839 838 837 835 835 833 832 831 830 828 827 826 825 823 822
882 882 882 882 882 882 882 882 882 882 882 882 881 881 880 880 879 878 878 878 878 878 878 877 877 876 876 876 875 875 875 874 874 874 873 872 871 871 870 869 869 868 867 867 866 865 865 864 863 862 861 860 859 858 857 855 855 853 852 852 851 850 849 848 847 846 845 844 843 841 840 839 838 836 835 834 833 832 830 829 828 827 825 824 823 822
881 882 882 882 882 882 882 882 882 881 881 881 881 881 880 880 879 878 877 877 876 877 877 877 876 876 875 875 875 875 874 874 873 873 872 872 871 870 870 869 868 868 867 866 866 865 864 863 862 862 861 860 859 858 856 855 854 853 852 851 850 850 849 848 847 845 845 843 842 841 840 839 837 836 835 834 832 831 830 829 827 826 825 824 823 821
881 881 881 881 881 881 881 881 881 881 881 880 880 880 879 879 879 879 878 877 876 876 875 875 876 876 875 875 874 874 873 873 872 872 871 871 870 870 869 868 868 867 866 866 865 865 864 863 862 861 860 859 858 857 856 855 854 853 852 851 850 849 848 847 846 845 844 843 842 841 840 838 837 836 835 833 832 831 829 828 827 825 824 823 822 821
880 880 881 881 881 881 881 881 880 880 880 880 880 879 879 879 879 879 879 878 877 876 875 875 875 875 875 875 874 873 873 872 871 871 870 870 869 869 868 867 867 866 866 865 865 864 863 862 861 860 860 859 858 856 855 855 854 853 852 851 850 849 848 847 846 845 844 843 841 840 839 838 837 835 834 833 832 830 829 828 826 825 824 822 821 820
880 880 880 880 880 880 880 880 880 880 880 880 880 880 879 879 879 878 878 877 877 876 875 875 875 874 874 874 874 873 872 871 870 869 869 869 868 868 867 866 866 865 865 864 864 863 862 861 860 860 859 858 857 856 855 854 853 852 852 851 850 849 848 847 845 845 843 842 841 840 839 837 836 835 834 832 831 830 829 827 826 825 823 822 820 820
879 879 879 880 880 880 880 880 880 880 880 880 879 879 879 879 878 878 877 876 876 875 875 874 873 873 874 874 873 872 871 870 869 868 867 867 867 867 867 866 865 865 864 864 863 863 862 861 860 859 858 857 856 855 855 854 853 852 851 850 850 849 847 846 845 844 843 842 840 839 838 837 836 835 833 832 831 830 828 827 825 824 823 821 820 819
878 878 879 879 879 879 879 879 879 879 879 879 879 879 878 878 877 877 877 876 876 875 874 873 872 872 872 873 873 872 871 870 868 867 866 865 865 866 866 865 864 864 864 863 863 862 861 860 860 859 858 857 856 855 854 854 853 852 851 850 849 848 847 846 845 844 842 841 840 839 838 836 835 834 833 832 830 829 828 826 825 824 822 821 820 818
877 878 878 878 878 878 879 879 879 879 878 878 878 878 878 877 877 877 876 876 875 875 875 875 874 873 871 871 871 871 870 869 868 866 865 864 864 865 865 864 864 863 862 862 862 861 860 860 859 858 857 856 855 855 854 853 852 851 850 850 849 848 847 845 844 843 842 840 839 838 837 836 835 833 832 831 830 829 827 826 825 823 822 820 819 817
876 877 877 877 877 877 878 878 878 878 878 877 877 877 877 877 877 876 876 876 875 875 875 875 875 875 873 871 870 870 870 869 868 866 865 863 863 863 864 863 863 862 861 861 861 860 860 859 858 857 856 856 855 854 853 852 852 851 850 849 848 847 846 845 844 843 841 840 839 837 836 835 834 833 831 830 829 828 827 825 824 823 821 820 818 817
875 876 876 876 876 876 877 877 877 877 877 877 876 876 876 876 876 876 875 875 875 875 875 875 875 875 874 872 870 870 870 869 868 866 865 863 862 862 863 862 862 861 860 860 860 859 859 858 857 857 856 855 854 854 853 852 851 850 850 849 848 847 845 845 843 842 841 839 838 837 835 834 833 832 831 830 828 827 826 825 823 822 820 819 817 816
875 875 875 875 875 875 875 876 876 876 876 876 875 875 875 875 875 875 875 875 875 875 875 874 874 874 873 871 870 870 870 869 868 866 865 863 861 861 862 862 861 860 859 859 858 858 857 857 856 855 855 854 853 853 852 851 850 850 849 848 847 846 845 844 842 841 840 839 837 836 835 834 832 831 830 829 828 826 825 824 823 821 820 818 817 815
873 874 874 874 875 875 875 875 875 875 875 875 875 875 875 874 874 874 874 874 874 874 874 873 873 872 872 871 870 869 869 869 868 866 865 863 861 861 861 861 860 859 858 857 857 857 856 856 855 854 854 853 852 852 851 850 850 849 848 847 846 845 844 843 842 840 839 838 837 835 834 833 831 830 829 828 827 825 824 823 822 820 819 817 816 815
872 873 873 873 873 874 874 874 874 874 874 874 874 874 874 874 873 873 873 873 873 872 872 872 871 871 870 870 869 869 869 868 868 867 865 863 860 860 860 860 860 858 857 856 856 855 855 855 854 853 853 852 851 850 850 849 849 848 847 846 845 844 843 842 841 840 838 837 836 835 833 832 831 830 828 827 826 825 823 822 820 819 818 816 815 814
871 872 872 872 872 873 873 873 873 873 873 873 873 873 873 873 873 872 872 872 871 871 871 870 870 870 869 869 868 868 868 868 867 866 865 863 860 859 860 859 859 857 856 855 855 854 853 853 852 852 851 851 850 850 849 848 847 847 846 845 844 843 842 841 840 839 837 836 835 834 833 831 830 829 827 826 825 823 822 821 820 818 817 815 814 813
870 871 871 871 871 872 872 872 872 872 872 872 872 872 872 872 872 872 871 871 870 870 870 869 868 868 867 867 867 866 866 866 866 865 865 863 860 859 859 859 858 856 855 854 854 853 852 851 850 850 850 849 849 848 848 847 846 845 845 844 843 842 841 840 839 838 836 835 834 833 832 830 829 828 826 825 824 823 821 820 819 817 816 815 813 811
870 870 870 870 870 871 871 871 871 871 871 871 871 871 871 871 871 871 870 870 870 869 869 868 867 866 866 865 865 865 865 865 865 865 864 862 860 858 858 858 858 856 854 853 852 852 850 850 849 849 848 848 848 847 846 846 845 844 843 842 842 841 840 839 837 836 835 834 833 832 831 830 828 827 826 824 823 822 820 819 817 816 815 813 812 810
869 869 869 870 870 870 870 870 870 870 871 871 871 870 870 870 870 870 869 869 869 868 868 867 866 865 865 865 864 864 864 864 864 863 863 861 859 857 857 857 857 856 854 852 851 851 850 848 847 847 847 846 846 846 845 844 843 843 842 841 840 839 838 837 836 835 834 833 832 831 830 828 827 826 825 823 822 821 819 818 816 815 814 812 810 809
868 868 868 868 869 869 869 869 870 870 870 870 870 870 870 869 869 869 868 868 868 867 867 866 865 864 864 863 863 863 862 862 862 862 861 860 859 857 856 856 856 855 853 851 850 850 849 847 846 845 845 845 845 844 843 843 842 841 840 839 838 837 836 835 835 834 833 832 831 830 828 827 826 825 824 822 821 820 818 817 815 814 813 811 809 808
866 866 867 867 867 868 868 868 869 869 869 869 869 869 869 868 868 867 867 867 867 866 866 865 865 864 863 862 862 861 861 861 861 861 860 860 858 857 856 856 855 855 853 850 849 848 848 847 845 845 844 844 843 843 842 841 840 839 838 837 836 836 835 834 833 832 831 830 829 828 827 826 825 824 822 821 820 818 817 816 815 813 812 810 808 807
865 865 865 866 866 866 867 867 867 867 868 868 868 868 867 867 867 866 866 866 865 865 865 864 864 864 863 862 861 860 860 860 860 860 860 859 858 856 856 855 855 854 853 850 847 845 845 845 845 844 843 842 842 841 840 839 838 837 836 835 835 834 833 832 831 830 829 828 827 826 825 824 823 822 821 820 818 817 816 815 813 812 810 809 807 806
864 864 864 865 865 865 865 865 866 866 866 866 866 866 866 866 865 865 865 865 864 864 863 863 863 863 862 861 860 859 858 859 859 859 859 858 857 855 855 854 854 853 853 851 847 844 842 843 843 843 842 841 840 839 838 837 837 836 835 834 833 832 831 830 829 828 827 826 825 825 824 823 821 820 819 818 817 816 815 814 812 811 809 808 806 805
862 863 863 863 864 864 864 864 864 865 865 865 865 865 865 864 864 864 864 863 863 863 862 862 861 861 861 861 860 859 857 857 858 858 858 857 856 855 855 854 852 852 853 853 851 847 842 840 840 841 841 840 839 838 837 836 835 834 833 832 831 830 830 829 828 826 825 825 823 822 821 820 820 819 817 816 815 814 813 812 811 810 809 807 805 804
860 861 861 862 862 862 862 862 863 863 863 863 863 863 863 863 863 862 862 862 862 861 861 860 860 860 860 860 860 859 856 856 856 857 857 857 855 854 854 853 852 851 852 853 852 850 846 841 838 838 839 839 838 837 836 835 834 833 832 831 830 829 828 827 826 825 823 822 821 820 819 818 817 816 815 815 814 813 812 811 810 809 808 806 804 803
859 859 860 860 860 860 860 861 861 861 861 861 861 861 861 861 861 861 861 860 860 860 860 859 859 858 858 858 858 856 855 855 855 856 856 856 854 853 853 852 851 850 850 850 850 850 848 844 840 838 837 837 836 836 835 834 833 832 831 830 829 827 826 825 824 823 821 820 819 818 817 816 815 814 813 813 812 811 810 810 809 808 807 805 804 802
857 857 858 858 858 858 859 859 859 859 859 860 860 860 860 860 860 859 859 859 859 859 858 858 857 857 856 856 855 854 853 853 854 855 855 855 854 852 852 851 851 850 849 848 848 847 846 843 841 839 836 834 834 835 834 833 832 831 830 830 828 826 825 824 823 821 820 819 817 816 815 814 813 812 811 810 810 809 809 808 807 807 806 805 803 801
855 855 856 856 856 856 857 857 857 857 857 858 858 858 858 858 858 858 857 857 857 857 856 856 856 855 855 855 854 852 851 851 852 853 854 854 853 852 850 850 850 850 848 847 846 845 844 841 840 839 837 833 831 831 832 831 830 830 829 828 827 825 824 823 822 820 818 817 816 814 813 812 811 810 809 809 808 807 807 806 805 805 804 803 802 801
853 854 854 854 854 854 855 855 855 855 855 855 856 856 856 856 855 855 855 855 855 855 855 854 854 854 853 853 852 850 849 849 850 851 852 852 851 851 850 848 848 848 847 845 845 844 843 840 838 838 837 834 831 829 829 829 829 828 827 826 825 824 823 822 821 820 817 816 815 813 812 811 810 809 808 807 806 806 805 804 803 802 802 801 800 800
851 851 852 852 852 852 852 852 853 853 853 853 854 854 854 854 853 853 853 853 853 853 852 852 852 851 851 850 850 849 848 847 848 849 849 850 850 849 848 846 846 846 846 845 843 842 842 840 837 835 835 834 831 829 827 826 826 826 825 824 824 822 821 820 820 818 817 815 814 812 811 810 809 807 806 805 805 804 802 802 801 800 799 798 798 797
849 850 850 850 850 850 850 850 850 851 851 851 851 851 851 851 851 851 851 851 850 850 850 850 849 849 848 848 847 846 846 846 846 846 847 847 847 847 846 844 843 844 844 843 842 841 840 839 836 834 832 831 830 828 827 826 825 824 822 822 822 821 820 819 818 817 816 814 812 811 810 809 808 806 805 804 803 802 800 799 798 798 797 796 795 795
847 847 848 848 848 848 848 848 849 849 849 849 849 849 849 849 849 849 849 848 848 848 848 847 847 846 846 845 845 845 844 844 844 844 844 844 844 844 843 842 841 840 841 841 840 840 839 837 836 834 832 829 827 826 825 825 824 822 821 820 819 818 818 817 816 815 814 813 811 810 808 807 806 805 804 803 802 800 799 797 796 796 795 794 792 791
846 846 846 846 846 847 847 847 847 847 847 847 847 847 847 847 846 846 846 846 846 845 845 845 845 844 843 843 843 842 842 842 842 842 842 842 841 841 841 840 839 838 838 838 838 837 837 835 834 832 831 829 827 824 823 823 822 821 820 818 816 815 815 815 814 813 812 811 810 808 807 806 805 804 803 802 801 800 798 797 795 794 794 793 791 789
844 844 844 845 845 845 845 845 845 845 845 845 845 845 845 845 845 844 844 844 843 843 843 843 842 841 841 840 840 840 840 839 839 839 839 839 839 839 838 837 837 836 836 835 835 834 834 833 831 830 829 828 826 824 821 820 820 820 819 817 815 813 812 812 812 810 810 808 808 807 806 805 804 803 802 801 800 798 798 796 794 793 792 791 790 789
843 843 843 843 843 844 844 844 844 844 844 843 843 843 843 843 843 842 841 841 841 841 841 841 840 839 838 837 837 837 837 837 836 836 836 836 836 836 835 835 834 834 834 833 832 831 831 831 830 828 826 826 825 823 820 818 818 818 817 815 813 811 810 809 809 809 808 806 805 805 805 803 802 801 800 799 798 796 795 795 793 792 790 789 788 788
841 841 841 841 842 842 842 842 842 842 842 841 841 841 841 841 841 840 840 840 839 839 839 839 839 838 836 835 834 834 834 834 834 834 834 833 833 833 833 832 832 832 832 831 830 828 828 828 827 826 824 824 823 821 818 816 815 815 814 813 812 811 808 805 805 806 805 804 803 803 802 801 800 799 798 797 796 795 793 792 791 790 789 788 786 785
839 840 840 840 840 840 840 840 840 840 840 840 839 839 839 839 839 839 838 837 837 837 837 837 837 836 835 833 832 831 831 831 831 832 831 831 831 830 830 830 830 830 830 829 828 826 825 825 824 823 823 822 821 819 816 815 813 812 810 810 810 810 807 804 803 803 802 801 800 800 800 799 798 797 796 795 794 792 791 790 788 787 786 785 785 783
838 838 838 838 838 838 838 838 838 838 838 837 837 837 837 837 837 837 836 835 835 835 835 835 835 834 832 831 830 830 829 828 828 829 829 829 828 828 828 828 827 827 827 826 825 825 824 822 821 820 820 820 819 816 814 812 811 809 807 807 807 806 804 802 801 801 800 798 797 797 797 797 796 795 793 792 791 790 789 788 786 785 784 783 782 781
836 836 836 836 836 836 836 836 836 836 836 835 835 835 835 835 835 835 834 834 833 833 832 833 833 832 830 829 828 828 827 826 825 825 826 826 825 825 825 825 825 824 824 823 822 822 821 820 819 818 818 817 815 814 812 811 809 806 804 804 804 803 801 800 799 799 798 796 795 794 794 795 794 793 791 789 788 787 786 785 784 783 781 780 779 778
834 834 834 834 834 834 834 834 834 834 834 833 833 833 833 833 833 833 832 832 831 831 830 830 830 830 828 827 826 826 825 824 823 822 823 823 823 823 823 823 822 822 821 820 820 819 818 818 817 817 816 815 812 809 808 808 807 805 802 801 801 800 799 797 796 795 795 794 793 792 792 792 791 790 788 787 786 785 783 782 781 780 779 778 777 776
833 833 832 833 833 832 832 832 832 832 832 831 831 831 831 831 831 831 830 830 829 829 828 828 827 827 826 825 825 825 824 822 821 820 820 820 820 820 820 820 820 819 819 818 817 816 815 815 814 814 813 812 810 806 804 804 804 802 800 799 799 798 796 794 793 793 793 791 790 790 790 790 789 787 786 785 783 782 780 779 778 777 776 775 774 773
831 831 831 831 831 830 830 830 830 830 830 830 829 829 829 829 829 829 828 827 827 827 826 825 825 824 824 823 822 822 822 821 820 819 818 818 818 818 817 817 817 817 816 815 815 814 813 812 810 810 810 809 807 804 800 800 800 800 798 797 796 795 794 791 790 790 790 789 788 787 787 787 786 785 784 783 780 779 777 776 775 774 773 773 772 771
829 829 829 829 829 829 828 829 829 829 828 828 828 827 827 827 827 827 826 826 825 824 824 823 823 822 821 820 820 820 820 819 818 817 816 816 816 816 815 815 815 815 814 813 812 812 811 809 807 805 805 805 804 801 798 796 796 797 796 794 793 792 791 789 787 787 787 786 785 785 785 784 783 782 782 781 779 776 775 774 772 771 770 770 769 768
827 827 827 827 827 827 827 827 827 827 826 826 826 826 825 825 825 825 824 824 823 822 821 821 820 820 819 818 817 817 817 817 816 815 814 814 815 814 814 813 813 813 812 811 810 809 808 807 804 801 800 800 801 800 797 794 793 794 793 791 790 790 789 787 785 784 785 784 783 782 782 781 780 780 780 779 777 774 772 770 769 767 766 766 766 765